SCP
0 0 0 0 0 0 0 0 0 0 0 0 0 0 0 0 0 0 0 0 0 0 0 0 0 0 0 0 0 0 0 0 0 0 0 0 0 0
0 0 0 0 0 0 0 0 0 0 0 0 0 0 0 0 0 0 0 0 0 0 0 0 0 0 0 0 0 0 0 0 0 0 0 0 0 0
0 0 0 0 0 0 0 0 0 0 0 0 0 0 0 0 0 0 0 0 0 0 0 0 0 0 0 0 0 0 0 0 0 0 0 0 0 0
0 0 0 0 0 0 0 0 0 0 0 0 0 0 0 0 0 0 0 0 0 0 0 0 0 0 0 0 0 0 0 0 0 0 0 0 0 0
0 0 0 0 0 0 0 0 0 0 0 0 0 0 0 0 0 0 0 0 0 0 0 0 0 0 0 0 0 0 0 0 0 0 0 0 0 0
0 0 0 0 0 0 0 0 0 0 0 0 0 0 0 0 0 0 0 0 0 0 0 0 0 0 0 0 0 0 0 0 0 0 0 0 0 0
0 0 0 0 0 0 0 0 0 0 0 0 0 0 0 0 0 0 0 0 0 0 0 0 0 0 0 0 0 0 0 0 0 0 0 0 0 0
0 0 0 0 0 0 0 0 0 0 0 0 0 0 0 0 0 0 0 0 0 0 0 0 0 0 0 0 0 0 0 0 0 0 0 0 0 0
0 0 0 0 0 0 0 0 0 0 0 0 0 0 0 0 0 0 0 0 0 0 0 0 0 0 0 0 0 0 0 0 0 0 0 0 0 0
0 0 0 0 0 0 0 0 0 0 0 0 0 0 0 0 0 0 0 0 0 0 0 0 0 0 0 0 0 0 0 0 0 0 0 0 0 0
0 0 0 0 0 0 0 0 0 0 0 0 0 0 0 0 0 0 0 0 0 0 0 0 0 0 0 0 0 0 0 0 0 0 0 0 0 0
0 0 0 0 0 0 0 0 0 0 0 0 0 0 0 0 0 0 0 0 0 0 0 0 0 0 0 0 0 0 0 0 0 0 0 0 0 0
0 0 0 0 0 0 0 0 0 0 0 0 0 0 0 0 0 0 0 0 0 0 0 0 0 0 0 0 0 0 0 0 0 0 0 0 0 0
0 0 0 0 0 0 0 0 0 0 0 0 0 0 0 0 0 0 0 0 0 0 0 0 0 0 0 0 0 0 0 0 0 0 0 0 0 0
0 0 0 0 0 0 0 0 0 0 0 0 0 0 0 0 0 0 0 0 0 0 0 0 0 0 0 0 0 0 0 0 0 0 0 0 0 0
0 0 0 0 0 0 0 0 0 0 0 0 0 0 0 0 0 0 0 0 0 0 0 0 0 0 0 0 0 0 0 0 0 0 0 0 0 0
0 0 0 0 0 0 0 0 0 0 0 0 0 0 0 0 0 0 0 0 0 0 0 0 0 0 0 0 0 0 0 0 0 0 0 0 0 0
0 0 0 0 0 0 0 0 0 0 0 0 0 0 0 0 0 0 0 0 0 0 0 0 0 0 0 0 0 0 0 0 0 0 0 0 0 0
0 0 0 0 0 0 0 0 0 0 0 0 0 0 0 0 0 0 0 0 0 0 0 0 0 0 0 0 0 0 0 0 0 0 0 0 0 0
0 0 0 0 0 0 0 0 0 0 0 0 0 0 0 0 0 0 0 0 0 0 0 0 0 0 0 0 0 0 0 0 0 0 0 0 0 0
0 0 0 0 0 0 0 0 0 0 0 0 0 0 0 0 0 0 0 0 0 0 0 0 0 0 0 0 0 0 0 0 0 0 0 0 0 0
0 0 0 0 0 0 0 0 0 0 0 0 0 0 0 0 0 0 0 0 0 0 0 0 0 0 0 0 0 0 0 0 0 0 0 0 0 0
0 0 0 0 0 0 0 0 0 0 0 0 0 0 0 0 0 0 0 0 0 0 0 0 0 0 0 0 0 0 0 0 0 0 0 0 0 0
Wind_Speed_500mb
50 48 46 45 43 42 42 41 39 22 25 33 34 39 43 43 45 45 46 41 43 37 38 36 34 34 33 33 34 37 36 35 36 35 36 38 36 30
51 48 47 44 43 43 42 42 43 42 31 31 31 33 33 36 41 44 46 43 40 35 37 33 32 32 30 27 30 31 33 33 34 30 25 25 24 23
52 49 46 44 44 43 43 44 44 44 46 47 47 42 38 33 38 44 43 41 36 30 37 33 33 32 29 27 25 26 25 26 27 27 24 22 22 24
52 48 46 45 44 44 44 44 43 44 46 49 46 47 47 49 52 54 53 50 45 34 38 35 35 32 29 26 24 24 24 23 24 25 21 21 21 22
50 48 46 45 46 46 45 46 45 46 47 49 49 49 48 47 46 48 50 47 44 38 37 36 35 33 30 28 27 26 27 26 28 29 28 27 27 26
50 49 47 48 47 45 47 48 48 46 47 48 48 48 46 41 42 40 42 36 34 36 36 35 35 35 34 31 31 30 29 30 31 33 34 33 32 32
51 50 50 49 46 47 48 46 45 45 46 43 43 39 37 37 37 35 36 32 28 31 35 35 36 38 37 37 35 34 36 37 37 37 39 39 38 38
51 49 47 47 47 47 46 44 43 42 43 41 39 37 35 35 34 38 34 27 21 29 33 36 37 40 38 39 37 37 40 43 45 44 43 42 42 43
49 50 48 46 43 42 40 37 37 38 39 38 41 39 38 38 36 37 29 28 29 29 27 30 33 36 34 36 38 38 40 43 44 45 47 47 48 48
46 45 44 42 40 39 37 38 39 41 41 40 43 40 37 32 32 33 31 34 35 34 35 40 37 37 34 37 40 42 43 44 46 47 50 52 51 50
44 43 41 38 36 34 36 37 35 38 39 45 47 47 49 43 40 42 48 42 40 41 34 38 44 38 36 34 38 42 42 43 47 48 49 50 53 53
40 39 38 38 36 36 39 37 38 36 33 35 42 46 51 51 44 41 39 39 37 32 37 30 37 26 15 23 25 29 33 35 41 44 47 49 53 50
40 41 38 35 35 36 36 39 37 31 30 30 30 33 35 37 45 54 49 50 46 45 45 38 39 39 34 37 35 31 31 33 35 36 37 39 43 47
39 35 30 29 29 29 30 30 27 27 28 26 28 31 33 29 29 33 39 48 51 51 47 52 49 50 48 46 42 50 49 49 51 50 46 45 47 52
30 27 25 27 28 31 34 36 37 35 32 23 29 36 34 33 32 32 32 40 46 49 46 51 56 57 63 63 59 55 54 51 50 46 46 50 53 57
27 27 26 25 25 28 30 32 35 35 37 40 44 43 40 36 34 33 34 38 42 46 48 49 49 51 55 59 61 60 56 47 48 46 44 40 38 41
29 26 24 25 24 21 22 22 23 25 28 30 35 38 38 39 40 39 37 40 45 48 51 50 50 54 56 57 57 60 56 52 53 47 51 50 49 52
25 22 21 22 20 18 15 16 16 19 21 22 22 23 25 29 34 37 36 38 40 37 35 34 34 36 44 51 52 54 53 52 50 50 47 50 51 51
22 21 18 16 14 16 17 20 21 23 24 26 27 26 27 28 30 33 33 36 37 36 36 37 35 35 33 36 38 39 41 40 41 40 43 48 50 52
26 22 22 22 23 25 27 29 29 32 33 33 35 35 35 36 37 38 38 40 42 41 41 41 43 41 39 37 36 40 42 40 42 41 46 50 51 53
30 31 32 33 34 35 38 40 41 43 43 42 44 44 44 46 47 47 47 46 46 47 49 46 44 41 43 47 51 52 50 43 43 44 46 50 52 54
37 38 40 42 45 46 48 50 51 53 52 51 50 50 51 52 53 53 54 55 55 54 55 51 50 46 46 46 48 45 47 48 45 47 48 50 48 32
44 45 48 51 54 56 58 58 58 57 56 55 55 55 55 56 56 57 58 60 60 60 59 58 57 54 50 49 48 47 48 48 49 46 45 42 44 47
Wind_Direction_500mb
243 245 249 251 251 252 252 250 248 254 269 265 253 254 251 250 254 258 262 269 269 252 247 247 249 253 259 262 260 257 254 251 250 250 246 246 249 247
240 244 247 248 249 251 252 252 250 245 249 264 256 257 253 249 248 250 261 265 267 248 244 245 249 252 253 260 262 258 254 251 249 245 236 234 228 230
239 242 245 246 247 250 253 254 253 250 249 253 258 256 260 259 253 258 264 270 273 258 244 244 249 251 251 251 251 247 245 246 247 243 236 235 232 230
240 242 242 244 247 250 253 255 257 257 255 259 258 262 260 261 261 264 269 271 271 265 246 242 244 243 243 238 236 229 230 234 239 241 241 239 242 242
239 241 242 244 246 250 254 257 258 259 260 259 262 268 268 268 267 267 268 269 267 253 245 241 240 240 238 236 236 235 234 236 239 244 245 246 250 252
237 239 242 245 248 252 255 257 258 256 256 257 262 265 271 270 267 269 272 271 259 244 241 240 240 241 241 238 239 241 240 243 247 253 255 255 256 258
235 239 242 246 251 251 251 253 251 251 249 253 259 259 263 264 269 270 269 264 252 245 239 241 242 242 241 245 245 247 247 247 253 256 258 257 257 257
237 243 247 246 244 245 248 246 247 245 248 252 252 256 261 263 272 274 269 247 242 243 244 241 243 247 249 250 250 249 251 254 257 259 260 259 260 262
238 240 242 243 245 246 247 246 245 247 250 255 259 261 265 273 277 273 256 235 237 239 253 248 248 251 252 253 256 255 255 257 259 260 263 263 263 262
238 240 241 241 241 244 246 246 248 247 246 249 261 267 269 271 271 253 246 251 255 255 258 268 262 261 260 260 260 260 260 260 261 262 262 263 261 262
233 235 237 239 239 238 241 245 248 251 250 249 250 257 264 265 269 259 254 257 266 267 263 264 272 274 274 265 261 261 260 259 260 259 259 260 261 263
234 237 238 238 238 238 241 245 250 252 257 258 259 255 258 266 268 259 253 259 258 269 274 261 273 282 285 271 260 257 257 256 259 260 259 259 265 260
235 239 241 239 236 234 236 242 250 260 258 262 263 264 260 255 248 249 252 254 256 263 269 271 271 275 275 268 267 261 262 268 267 266 269 263 250 254
229 231 228 224 225 221 230 241 247 254 260 263 270 273 273 268 267 262 256 256 259 260 264 270 273 277 278 279 277 282 278 273 271 270 268 263 257 259
224 225 222 216 210 212 221 228 233 240 239 244 259 263 269 270 264 265 263 261 262 265 263 264 269 272 275 274 274 277 285 287 284 274 268 263 262 262
214 213 207 209 212 220 226 233 241 245 251 254 257 263 265 267 269 267 267 266 264 265 265 265 267 269 269 269 276 279 279 276 279 279 278 273 269 268
198 202 205 210 213 217 229 236 244 250 254 259 261 263 265 265 266 267 267 268 269 271 273 273 267 264 262 265 268 273 277 278 281 279 276 274 270 270
194 199 202 210 211 218 221 231 240 248 253 257 260 266 271 268 267 269 269 270 272 271 271 275 275 272 267 267 265 269 274 279 279 276 277 273 271 273
196 204 213 222 229 241 246 250 251 256 259 261 266 269 273 272 271 272 273 272 274 271 272 271 267 261 262 267 275 272 275 279 279 279 275 271 272 276
233 237 240 243 248 253 258 264 264 262 264 267 269 269 270 270 270 271 272 274 275 275 274 271 270 265 262 266 265 271 276 277 279 278 277 278 279 280
246 252 256 260 262 263 266 267 268 270 269 268 266 266 266 266 267 267 269 269 270 272 273 275 275 273 267 268 267 274 280 277 274 275 277 281 285 288
255 258 261 262 264 266 267 269 270 270 271 269 268 267 267 267 268 269 270 271 271 270 271 271 272 270 269 269 271 273 273 274 275 275 275 276 280 281
262 263 262 263 266 268 268 268 268 268 268 268 269 269 269 270 270 270 269 269 269 269 269 269 270 269 268 268 269 271 273 278 278 276 275 277 277 281
Wind_Speed_850mb
50 48 46 45 43 42 42 41 39 22 25 33 34 39 43 43 45 45 46 41 43 37 38 36 34 34 33 33 34 37 36 35 36 35 36 38 36 30
51 48 47 44 43 43 42 42 43 42 31 31 31 33 33 36 41 44 46 43 40 35 37 33 32 32 30 27 30 31 33 33 34 30 25 25 24 23
52 49 46 44 44 43 43 44 44 44 46 47 47 42 38 33 38 44 43 41 36 30 37 33 33 32 29 27 25 26 25 26 27 27 24 22 22 24
52 48 46 45 44 44 44 44 43 44 46 49 46 47 47 49 52 54 53 50 45 34 38 35 35 32 29 26 24 24 24 23 24 25 21 21 21 22
50 48 46 45 46 46 45 46 45 46 47 49 49 49 48 47 46 48 50 47 44 38 37 36 35 33 30 28 27 26 27 26 28 29 28 27 27 26
50 49 47 48 47 45 47 48 48 46 47 48 48 48 46 41 42 40 42 36 34 36 36 35 35 35 34 31 31 30 29 30 31 33 34 33 32 32
51 50 50 49 46 47 48 46 45 45 46 43 43 39 37 37 37 35 36 32 28 31 35 35 36 38 37 37 35 34 36 37 37 37 39 39 38 38
51 49 47 47 47 47 46 44 43 42 43 41 39 37 35 35 34 38 34 27 21 29 33 36 37 40 38 39 37 37 40 43 45 44 43 42 42 43
49 50 48 46 43 42 40 37 37 38 39 38 41 39 38 38 36 37 29 28 29 29 27 30 33 36 34 36 38 38 40 43 44 45 47 47 48 48
46 45 44 42 40 39 37 38 39 41 41 40 43 40 37 32 32 33 31 34 35 34 35 40 37 37 34 37 40 42 43 44 46 47 50 52 51 50
44 43 41 38 36 34 36 37 35 38 39 45 47 47 49 43 40 42 48 42 40 41 34 38 44 38 36 34 38 42 42 43 47 48 49 50 53 53
40 39 38 38 36 36 39 37 38 36 33 35 42 46 51 51 44 41 39 39 37 32 37 30 37 26 15 23 25 29 33 35 41 44 47 49 53 50
40 41 38 35 35 36 36 39 37 31 30 30 30 33 35 37 45 54 49 50 46 45 45 38 39 39 34 37 35 31 31 33 35 36 37 39 43 47
39 35 30 29 29 29 30 30 27 27 28 26 28 31 33 29 29 33 39 48 51 51 47 52 49 50 48 46 42 50 49 49 51 50 46 45 47 52
30 27 25 27 28 31 34 36 37 35 32 23 29 36 34 33 32 32 32 40 46 49 46 51 56 57 63 63 59 55 54 51 50 46 46 50 53 57
27 27 26 25 25 28 30 32 35 35 37 40 44 43 40 36 34 33 34 38 42 46 48 49 49 51 55 59 61 60 56 47 48 46 44 40 38 41
29 26 24 25 24 21 22 22 23 25 28 30 35 38 38 39 40 39 37 40 45 48 51 50 50 54 56 57 57 60 56 52 53 47 51 50 49 52
25 22 21 22 20 18 15 16 16 19 21 22 22 23 25 29 34 37 36 38 40 37 35 34 34 36 44 51 52 54 53 52 50 50 47 50 51 51
22 21 18 16 14 16 17 20 21 23 24 26 27 26 27 28 30 33 33 36 37 36 36 37 35 35 33 36 38 39 41 40 41 40 43 48 50 52
26 22 22 22 23 25 27 29 29 32 33 33 35 35 35 36 37 38 38 40 42 41 41 41 43 41 39 37 36 40 42 40 42 41 46 50 51 53
30 31 32 33 34 35 38 40 41 43 43 42 44 44 44 46 47 47 47 46 46 47 49 46 44 41 43 47 51 52 50 43 43 44 46 50 52 54
37 38 40 42 45 46 48 50 51 53 52 51 50 50 51 52 53 53 54 55 55 54 55 51 50 46 46 46 48 45 47 48 45 47 48 50 48 32
44 45 48 51 54 56 58 58 58 57 56 55 55 55 55 56 56 57 58 60 60 60 59 58 57 54 50 49 48 47 48 48 49 46 45 42 44 47
Wind_Direction_850mb
243 245 249 251 251 252 252 250 248 254 269 265 253 254 251 250 254 258 262 269 269 252 247 247 249 253 259 262 260 257 254 251 250 250 246 246 249 247
240 244 247 248 249 251 252 252 250 245 249 264 256 257 253 249 248 250 261 265 267 248 244 245 249 252 253 260 262 258 254 251 249 245 236 234 228 230
239 242 245 246 247 250 253 254 253 250 249 253 258 256 260 259 253 258 264 270 273 258 244 244 249 251 251 251 251 247 245 246 247 243 236 235 232 230
240 242 242 244 247 250 253 255 257 257 255 259 258 262 260 261 261 264 269 271 271 265 246 242 244 243 243 238 236 229 230 234 239 241 241 239 242 242
239 241 242 244 246 250 254 257 258 259 260 259 262 268 268 268 267 267 268 269 267 253 245 241 240 240 238 236 236 235 234 236 239 244 245 246 250 252
237 239 242 245 248 252 255 257 258 256 256 257 262 265 271 270 267 269 272 271 259 244 241 240 240 241 241 238 239 241 240 243 247 253 255 255 256 258
235 239 242 246 251 251 251 253 251 251 249 253 259 259 263 264 269 270 269 264 252 245 239 241 242 242 241 245 245 247 247 247 253 256 258 257 257 257
237 243 247 246 244 245 248 246 247 245 248 252 252 256 261 263 272 274 269 247 242 243 244 241 243 247 249 250 250 249 251 254 257 259 260 259 260 262
238 240 242 243 245 246 247 246 245 247 250 255 259 261 265 273 277 273 256 235 237 239 253 248 248 251 252 253 256 255 255 257 259 260 263 263 263 262
238 240 241 241 241 244 246 246 248 247 246 249 261 267 269 271 271 253 246 251 255 255 258 268 262 261 260 260 260 260 260 260 261 262 262 263 261 262
233 235 237 239 239 238 241 245 248 251 250 249 250 257 264 265 269 259 254 257 266 267 263 264 272 274 274 265 261 261 260 259 260 259 259 260 261 263
234 237 238 238 238 238 241 245 250 252 257 258 259 255 258 266 268 259 253 259 258 269 274 261 273 282 285 271 260 257 257 256 259 260 259 259 265 260
235 239 241 239 236 234 236 242 250 260 258 262 263 264 260 255 248 249 252 254 256 263 269 271 271 275 275 268 267 261 262 268 267 266 269 263 250 254
229 231 228 224 225 221 230 241 247 254 260 263 270 273 273 268 267 262 256 256 259 260 264 270 273 277 278 279 277 282 278 273 271 270 268 263 257 259
224 225 222 216 210 212 221 228 233 240 239 244 259 263 269 270 264 265 263 261 262 265 263 264 269 272 275 274 274 277 285 287 284 274 268 263 262 262
214 213 207 209 212 220 226 233 241 245 251 254 257 263 265 267 269 267 267 266 264 265 265 265 267 269 269 269 276 279 279 276 279 279 278 273 269 268
198 202 205 210 213 217 229 236 244 250 254 259 261 263 265 265 266 267 267 268 269 271 273 273 267 264 262 265 268 273 277 278 281 279 276 274 270 270
194 199 202 210 211 218 221 231 240 248 253 257 260 266 271 268 267 269 269 270 272 271 271 275 275 272 267 267 265 269 274 279 279 276 277 273 271 273
196 204 213 222 229 241 246 250 251 256 259 261 266 269 273 272 271 272 273 272 274 271 272 271 267 261 262 267 275 272 275 279 279 279 275 271 272 276
233 237 240 243 248 253 258 264 264 262 264 267 269 269 270 270 270 271 272 274 275 275 274 271 270 265 262 266 265 271 276 277 279 278 277 278 279 280
246 252 256 260 262 263 266 267 268 270 269 268 266 266 266 266 267 267 269 269 270 272 273 275 275 273 267 268 267 274 280 277 274 275 277 281 285 288
255 258 261 262 264 266 267 269 270 270 271 269 268 267 267 267 268 269 270 271 271 270 271 271 272 270 269 269 271 273 273 274 275 275 275 276 280 281
262 263 262 263 266 268 268 268 268 268 268 268 269 269 269 270 270 270 269 269 269 269 269 269 270 269 268 268 269 271 273 278 278 276 275 277 277 281